CW9927 Weather Reports


time (UTC)temp
C
wind
direction
speed
KPH
gust
KPH
rain 1hr
cm
rain 24hr
cm
rain mn
cm
humidity
%
barometer
mb
20260507065316 12 0.0 0.0 0.00 0.00 0.00 85 1019.8
20260507064316 12 0.0 0.0 0.00 0.00 0.00 85 1019.9
20260507063315 12 0.0 0.0 0.00 0.00 0.00 85 1019.9
20260507062316 12 0.0 0.0 0.00 0.00 0.00 85 1019.9
20260507061316 12 0.0 0.0 0.00 0.00 0.00 84 1019.9
20260507060316 13 0.0 0.0 0.00 0.00 0.00 84 1019.9
20260507055316 13 0.0 0.0 0.00 0.00 0.00 84 1019.8
20260507054316 13 0.0 0.0 0.00 0.00 0.00 83 1019.8
20260507053316 13 0.0 0.0 0.00 0.00 0.00 83 1019.8
20260507052315 13 0.0 0.0 0.00 0.00 0.00 82 1019.7
20260507051339 13 0.0 0.0 0.00 0.00 0.00 81 1019.7
20260507050317 14 0.0 0.0 0.00 0.00 0.00 81 1019.7
20260507045315 14 0.0 0.0 0.00 0.00 0.00 79 1019.7
20260507044315 15 0.0 0.0 0.00 0.00 0.00 79 1019.6
20260507043316 15 0.0 0.0 0.00 0.00 0.00 77 1019.5
20260507042315 15 0.0 0.0 0.00 0.00 0.00 76 1019.3
20260507041316 16 0.0 0.0 0.00 0.00 0.00 74 1019.3
20260507040316 16 0.0 0.0 0.00 0.00 0.00 72 1019.2
20260507035336 16 0.0 0.0 0.00 0.00 0.00 70 1019.1
20260507034316 17 0.0 0.0 0.00 0.00 0.00 69 1019.1
20260507033339 17 0.0 0.0 0.00 0.00 0.00 69 1019.0
20260507032317 17 0.0 0.0 0.00 0.00 0.00 68 1018.8
20260507031316 18 0.0 0.0 0.00 0.00 0.00 68 1018.7
20260507030318 18 0.0 0.0 0.00 0.00 0.00 68 1018.6
20260507025358 18 0.0 0.0 0.00 0.00 0.00 66 1018.5
20260507024318 18 0.0 0.0 0.00 0.00 0.00 65 1018.4
20260507023318 19 0.0 0.0 0.00 0.00 0.00 63 1018.3
20260507022317 20 0.0 0.0 0.00 0.00 0.00 64 1018.2
20260507021317 20 0.0 0.0 0.00 0.00 0.00 62 1018.2
20260507020317 20 0.0 0.0 0.00 0.00 0.00 63 1018.0
20260507015318 20 0.0 0.0 0.00 0.00 0.00 63 1018.0
20260507014318 20 0.0 0.0 0.00 0.00 0.00 62 1018.0
20260507013318 21 0.0 0.0 0.00 0.00 0.00 62 1017.8
20260507012338 21 0.0 0.0 0.00 0.00 0.00 61 1017.6
20260507011318 21 0.0 0.0 0.00 0.00 0.00 60 1017.6
20260507010331 22 0.0 1.6 0.00 0.00 0.00 60 1017.4
20260507010211 22 0.0 0.0 0.00 0.00 0.00 59 1017.4
20260507005418 22 0.0 1.6 0.00 0.00 0.00 58 1017.4
20260507004418 22 0.0 1.6 0.00 0.00 0.00 58 1017.3
20260507003418 22 0.0 3.2 0.00 0.00 0.00 58 1017.2
20260507002418 23 0.0 0.0 0.00 0.00 0.00 58 1017.2
20260507001438 23 0.0 3.2 0.00 0.00 0.00 57 1017.2
20260507000420 23 0.0 0.0 0.00 0.00 0.00 57 1017.1
20260506235437 23 248 3.2 9.7 0.00 0.00 0.00 57 1017.1
20260506234438 23 225 3.2 9.7 0.00 0.00 0.00 57 1017.1
20260506233418 24 270 6.4 14.5 0.00 0.00 0.00 56 1017.1
20260506232438 24 248 4.8 11.3 0.00 0.00 0.00 55 1017.1
20260506231437 25 270 3.2 9.7 0.00 0.00 0.00 55 1017.2
20260506230417 25 270 3.2 9.7 0.00 0.00 0.00 55 1017.2
20260506225437 25 0.0 0.0 0.00 0.00 0.00 53 1017.3
20260506224417 26 0.0 0.0 0.00 0.00 0.00 52 1017.3
20260506223417 26 0.0 0.0 0.00 0.00 0.00 49 1017.4
20260506222417 27 0.0 0.0 0.00 0.00 0.00 48 1017.6
20260506221417 26 0.0 0.0 0.00 0.00 0.00 49 1017.8
20260506220417 26 0.0 0.0 0.00 0.00 0.00 48 1017.9
20260506215417 26 0.0 0.0 0.00 0.00 0.00 48 1018.1
20260506214417 26 0.0 0.0 0.00 0.00 0.00 51 1018.3
20260506213418 26 0.0 0.0 0.00 0.00 0.00 49 1018.4
20260506212417 25 0.0 0.0 0.00 0.00 0.00 51 1018.5
20260506211417 25 0.0 0.0 0.00 0.00 0.00 50 1018.5
20260506210417 25 0.0 0.0 0.00 0.00 0.00 52 1018.5
20260506205438 25 0.0 0.0 0.00 0.00 0.00 53 1018.6
20260506204458 24 0.0 0.0 0.00 0.00 0.00 53 1018.7
20260506203438 24 0.0 0.0 0.00 0.00 0.00 53 1018.8
20260506202438 24 0.0 0.0 0.00 0.00 0.00 54 1018.9
20260506201418 23 0.0 0.0 0.00 0.00 0.00 55 1019.0
20260506200419 23 0.0 0.0 0.00 0.00 0.00 56 1019.1
20260506195419 22 0.0 0.0 0.00 0.00 0.00 57 1019.2
20260506194417 22 0.0 0.0 0.00 0.00 0.00 58 1019.4
20260506193418 22 0.0 0.0 0.00 0.00 0.00 57 1019.5
20260506192439 22 0.0 0.0 0.00 0.00 0.00 59 1019.7
20260506191417 22 0.0 0.0 0.00 0.00 0.00 59 1019.8
20260506190507 21 0.0 0.0 0.00 0.00 0.00 62 1019.9
20260506190248 21 0.0 0.0 0.00 0.00 0.00 62 1019.9
20260506185116 21 0.0 0.0 0.00 0.00 0.00 61 1020.0
20260506184117 21 0.0 0.0 0.00 0.00 0.00 62 1020.2
20260506183116 20 0.0 0.0 0.00 0.00 0.00 65 1020.2
20260506182116 20 0.0 0.0 0.00 0.00 0.00 64 1020.3
20260506181117 20 0.0 0.0 0.00 0.00 0.00 66 1020.3
20260506180116 19 0.0 0.0 0.00 0.00 0.00 67 1020.4
20260506175156 18 0.0 0.0 0.00 0.00 0.00 68 1020.4
20260506174116 18 0.0 0.0 0.00 0.00 0.00 69 1020.5
20260506173116 18 0.0 0.0 0.00 0.00 0.00 69 1020.5
20260506172116 18 0.0 0.0 0.00 0.00 0.00 69 1020.6
20260506171137 18 0.0 0.0 0.00 0.00 0.00 70 1020.7
20260506170116 17 0.0 0.0 0.00 0.00 0.00 74 1020.9
20260506165116 16 0.0 0.0 0.00 0.00 0.00 76 1020.9
20260506164116 16 0.0 0.0 0.00 0.00 0.00 75 1020.9
20260506163137 16 0.0 0.0 0.00 0.00 0.00 80 1021.0
20260506162116 15 0.0 0.0 0.00 0.00 0.00 81 1021.1
20260506161136 15 0.0 0.0 0.00 0.00 0.00 85 1021.0
20260506160116 13 0.0 0.0 0.00 0.00 0.00 87 1021.1
20260506155116 13 0.0 0.0 0.00 0.00 0.00 88 1021.2
20260506154116 13 0.0 0.0 0.00 0.00 0.00 88 1021.2
20260506153116 13 0.0 0.0 0.00 0.00 0.00 90 1021.3
20260506152116 13 0.0 0.0 0.00 0.00 0.00 94 1021.3
20260506151116 12 0.0 0.0 0.00 0.00 0.00 92 1021.3
20260506150117 11 0.0 0.0 0.00 0.00 0.00 92 1021.3
20260506145116 11 0.0 0.0 0.00 0.00 0.00 92 1021.3
20260506144116 11 0.0 0.0 0.00 0.00 0.00 93 1021.3
20260506143116 10 0.0 0.0 0.00 0.00 0.00 93 1021.4
20260506142136 10 0.0 0.0 0.00 0.00 0.00 93 1021.3
20260506141116 9 0.0 0.0 0.00 0.00 0.00 92 1021.2
20260506140116 9 0.0 0.0 0.00 0.00 0.00 92 1021.0
20260506135117 8 0.0 0.0 0.00 0.00 0.00 91 1020.9
20260506134117 8 0.0 0.0 0.00 0.00 0.00 91 1020.8
20260506133137 8 0.0 0.0 0.00 0.00 0.00 91 1020.7
20260506132137 8 0.0 0.0 0.00 0.00 0.00 91 1020.6
20260506131116 8 0.0 0.0 0.00 0.00 0.00 91 1020.6
20260506130212 7 0.0 0.0 0.00 0.00 0.00 90 1020.5
20260506125117 8 0.0 0.0 0.00 0.00 0.00 90 1020.4
20260506124117 8 0.0 0.0 0.00 0.00 0.00 90 1020.3
20260506123117 8 0.0 0.0 0.00 0.00 0.00 90 1020.3
20260506122117 8 0.0 0.0 0.00 0.00 0.00 90 1020.3
20260506121157 8 0.0 0.0 0.00 0.00 0.00 90 1020.1
20260506120119 8 0.0 0.0 0.00 0.00 0.00 89 1020.1
20260506115117 8 0.0 0.0 0.00 0.00 0.00 89 1020.1
20260506114117 8 0.0 0.0 0.00 0.00 0.00 89 1020.0
20260506113117 8 0.0 0.0 0.00 0.00 0.00 89 1019.9
20260506112117 9 0.0 0.0 0.00 0.00 0.00 89 1019.8
20260506111118 9 0.0 0.0 0.00 0.00 0.00 89 1019.8
20260506110117 9 0.0 0.0 0.00 0.00 0.00 89 1019.8
20260506105158 10 0.0 0.0 0.00 0.00 0.00 89 1019.9
20260506104117 10 0.0 0.0 0.00 0.00 0.00 89 1019.8
20260506103117 10 0.0 0.0 0.00 0.00 0.00 89 1019.8
20260506102200 10 0.0 0.0 0.00 0.00 0.00 89 1019.7
20260506101118 10 0.0 0.0 0.00 0.00 0.00 89 1019.6
20260506100117 10 0.0 0.0 0.00 0.00 0.00 89 1019.6
20260506095138 10 0.0 0.0 0.00 0.00 0.00 89 1019.6
20260506094117 10 0.0 0.0 0.00 0.00 0.00 89 1019.6
20260506093117 10 0.0 0.0 0.00 0.00 0.00 89 1019.7
20260506092117 10 0.0 0.0 0.00 0.00 0.00 89 1019.7
20260506091137 10 0.0 0.0 0.00 0.00 0.00 88 1019.8
20260506090117 10 0.0 0.0 0.00 0.00 0.00 88 1019.8
20260506085117 10 0.0 0.0 0.00 0.00 0.00 88 1019.7
20260506084117 10 0.0 0.0 0.00 0.00 0.00 88 1019.6
20260506083117 10 0.0 0.0 0.00 0.00 0.00 88 1019.6
20260506082138 10 0.0 0.0 0.00 0.00 0.00 88 1019.7
20260506081117 10 0.0 0.0 0.00 0.00 0.00 88 1019.7
20260506080117 10 0.0 0.0 0.00 0.00 0.00 88 1019.7
20260506073117 10 0.0 0.0 0.00 0.00 0.00 87 1019.4
20260506072117 10 0.0 0.0 0.00 0.00 0.00 86 1019.3
20260506071117 10 0.0 0.0 0.00 0.00 0.00 86 1019.3